sat.trackr.live / text

‹ back to catalog

ONEWEB-0550

NORAD 56052 · 2023-043G

PAYLOAD ACTIVE UNKNOWN

§ Identity

Operator
Country
UK
Launch date
2023-03-26
Launch site
SRILR
Launch vehicle
Mass (kg)
RCS (m²)

Purposes: comms

External: N2YO · Heavens-Above · Gunter

§ Orbital elements

Epoch: 2026-09-20T03:39:01.334592Z

Period
108.94 min
Inclination
87.9282°
Eccentricity
0.0002272
Mean motion
13.21826096 rev/d
Perigee alt
1,176.0 km
Apogee alt
1,179.5 km
Semi-major
7,555.9 km
B*
1.8456e-4
RAAN
225.0757°
Arg perigee
78.7411°
Mean anomaly
281.3978°
Rev number
17,077

§ Raw data

ONEWEB-05501 56052U 23043G   26263.15209878  .00000089  00000+0  18456-3 0  99922 56052  87.9282 225.0757 0002272  78.7411 281.3978 13.21826096170773

JSON: /api/v1/satellites/56052 · /tle

For live sub-satellite position, see the globe view (requires WebGL).

§ Visibility from observer

Set your observer location to see the next 7 days of passes ≥ 10°. The values pass through the URL so the page stays shareable.

No JS? Fill the form by hand. The geolocation button needs JavaScript.